Portada
METAR-TAF:

METAR-TAF

Aeroports :

Yao, Japó

latitud: 34-36N, longitud: 135-36E, altitud: 10 m

Observació

L'informe es va fer fa 38 minuts, a les 10:00 UTC
Vent 9 kt del Est/Sud-Est, variant entre Est i Sud/Sud-Est
Temperatura 19°C
Humitat 60%
Pressió 1020 hPa
Visibilitat 10 km o més
Escasses núvols a una alçada de 3500 ft
Núvols disperses a una alçada de 6000 ft
Cel ennuvolat

METAR: RJOY 211000Z 12009KT 080V150 9999 FEW035 SCT060 BKN/// 19/11 Q1020

Hora: 19:38 (10:38 UTC)


TAF: manca

Observacions i pronòstics meteorològics de més de 4000 aeroports (METAR i TAF).

Les estacions disponibles són els punts grocs i vermells al mapa.

Posi el ratolí al punt desitjat per veure el nom de l'estació.

Feu clic per veure les observacions i els pronòstics meteorològics.

Per canviar el mapa: feu clic els botons verds amb una creu de color negre per apropar; al botó verd amb un guió per allunyar la imatge; o en les fletxes verdes per a mapes adjacents.


METAR-TAF: